Time,TemperatureF,DewpointF,PressureIn,WindDirection,WindDirectionDegrees,WindSpeedMPH,WindSpeedGustMPH,Humidity,HourlyPrecipIn,Conditions,Clouds,dailyrainin,SoftwareType,DateUTC
2013-11-10 00:04:00,58.5,53.4,30.20,SSE,158,0.0,0.4,83,0.00,,,0.00,WUHU216HW,2013-11-10 05:04:00,
2013-11-10 00:09:00,58.3,53.2,30.20,SSE,158,0.4,0.4,83,0.00,,,0.00,WUHU216HW,2013-11-10 05:09:00,
2013-11-10 00:14:00,58.3,53.2,30.20,SSE,158,0.0,0.7,83,0.00,,,0.00,WUHU216HW,2013-11-10 05:14:00,
2013-11-10 00:19:00,58.3,53.2,30.20,SSE,158,0.0,0.7,83,0.00,,,0.00,WUHU216HW,2013-11-10 05:19:00,
2013-11-10 00:24:00,58.3,53.2,30.20,SSE,158,0.0,0.0,83,0.00,,,0.00,WUHU216HW,2013-11-10 05:24:00,
2013-11-10 00:29:00,58.1,53.0,30.20,SSE,158,0.0,0.0,83,0.00,,,0.00,WUHU216HW,2013-11-10 05:29:00,
2013-11-10 00:34:00,58.1,53.0,30.20,NE,45,0.0,0.0,83,0.00,,,0.00,WUHU216HW,2013-11-10 05:34:00,
2013-11-10 00:39:00,58.0,53.1,30.20,NNE,23,0.4,0.4,84,0.00,,,0.00,WUHU216HW,2013-11-10 05:39:00,
2013-11-10 00:44:00,58.0,53.1,30.20,NNE,23,0.0,0.7,84,0.00,,,0.00,WUHU216HW,2013-11-10 05:44:00,
2013-11-10 00:49:00,58.0,53.1,30.20,NNE,23,0.0,0.7,84,0.00,,,0.00,WUHU216HW,2013-11-10 05:49:00,
2013-11-10 00:54:00,57.8,52.9,30.19,NNE,23,1.1,1.1,84,0.00,,,0.00,WUHU216HW,2013-11-10 05:54:00,
2013-11-10 00:59:00,57.6,53.1,30.19,NNE,23,0.4,1.3,85,0.00,,,0.00,WUHU216HW,2013-11-10 05:59:00,
2013-11-10 01:04:00,57.6,53.1,30.20,NNE,23,0.7,1.3,85,0.00,,,0.00,WUHU216HW,2013-11-10 06:04:00,
2013-11-10 01:09:00,57.4,52.9,30.19,NNE,23,0.4,1.1,85,0.00,,,0.00,WUHU216HW,2013-11-10 06:09:00,
2013-11-10 01:14:00,57.4,52.6,30.19,NNE,23,0.4,0.7,84,0.00,,,0.00,WUHU216HW,2013-11-10 06:14:00,
2013-11-10 01:19:00,57.2,52.4,30.19,NNE,23,0.0,0.7,84,0.00,,,0.00,WUHU216HW,2013-11-10 06:19:00,
2013-11-10 01:24:00,57.2,52.4,30.19,NNE,23,0.0,0.0,84,0.00,,,0.00,WUHU216HW,2013-11-10 06:24:00,
2013-11-10 01:29:00,57.1,52.6,30.19,NNE,23,0.4,1.1,85,0.00,,,0.00,WUHU216HW,2013-11-10 06:29:00,
2013-11-10 01:34:00,57.1,52.6,30.19,NNE,23,0.4,1.1,85,0.00,,,0.00,WUHU216HW,2013-11-10 06:34:00,
2013-11-10 01:39:00,57.1,52.6,30.19,NNE,23,0.4,1.1,85,0.00,,,0.00,WUHU216HW,2013-11-10 06:39:00,
2013-11-10 01:44:00,56.9,52.0,30.19,NNE,23,0.4,0.9,84,0.00,,,0.00,WUHU216HW,2013-11-10 06:44:00,
2013-11-10 01:49:00,56.9,52.4,30.18,NNE,23,0.2,1.1,85,0.00,,,0.00,WUHU216HW,2013-11-10 06:49:00,
2013-11-10 01:54:00,56.9,52.4,30.18,North,0,0.9,1.1,85,0.00,,,0.00,WUHU216HW,2013-11-10 06:54:00,
2013-11-10 01:59:00,56.5,52.4,30.19,North,0,0.4,1.1,86,0.00,,,0.00,WUHU216HW,2013-11-10 06:59:00,
2013-11-10 02:04:00,56.3,52.2,30.19,North,0,0.0,1.1,86,0.00,,,0.00,WUHU216HW,2013-11-10 07:04:00,
2013-11-10 02:09:00,56.3,52.2,30.19,North,0,0.2,0.9,86,0.00,,,0.00,WUHU216HW,2013-11-10 07:09:00,
2013-11-10 02:14:00,56.3,52.2,30.19,North,0,0.9,1.1,86,0.00,,,0.00,WUHU216HW,2013-11-10 07:14:00,
2013-11-10 02:19:00,56.2,52.0,30.19,NE,45,0.7,1.1,86,0.00,,,0.00,WUHU216HW,2013-11-10 07:19:00,
2013-11-10 02:24:00,56.2,52.0,30.18,NE,45,0.9,0.9,86,0.00,,,0.00,WUHU216HW,2013-11-10 07:24:00,
2013-11-10 02:29:00,56.2,52.0,30.19,North,0,1.3,1.3,86,0.00,,,0.00,WUHU216HW,2013-11-10 07:29:00,
2013-11-10 02:34:00,56.2,52.0,30.19,North,0,1.1,1.3,86,0.00,,,0.00,WUHU216HW,2013-11-10 07:34:00,
2013-11-10 02:39:00,56.0,51.9,30.19,North,0,0.0,1.3,86,0.00,,,0.00,WUHU216HW,2013-11-10 07:39:00,
2013-11-10 02:44:00,56.0,52.1,30.19,North,0,0.4,0.9,87,0.00,,,0.00,WUHU216HW,2013-11-10 07:44:00,
2013-11-10 02:49:00,56.0,51.9,30.19,North,0,0.0,0.9,86,0.00,,,0.00,WUHU216HW,2013-11-10 07:49:00,
2013-11-10 02:54:00,56.0,52.1,30.19,North,0,0.0,0.4,87,0.00,,,0.00,WUHU216HW,2013-11-10 07:54:00,
2013-11-10 02:59:00,56.0,52.1,30.18,North,0,0.0,0.4,87,0.00,,,0.00,WUHU216HW,2013-11-10 07:59:00,
2013-11-10 03:04:00,56.0,52.1,30.18,North,0,0.4,0.4,87,0.00,,,0.00,WUHU216HW,2013-11-10 08:04:00,
2013-11-10 03:09:00,56.0,51.9,30.18,North,0,0.0,0.7,86,0.00,,,0.00,WUHU216HW,2013-11-10 08:09:00,
2013-11-10 03:14:00,56.0,52.1,30.19,North,0,0.0,0.7,87,0.00,,,0.00,WUHU216HW,2013-11-10 08:14:00,
2013-11-10 03:19:00,55.8,51.9,30.18,North,0,0.0,0.0,87,0.00,,,0.00,WUHU216HW,2013-11-10 08:19:00,
2013-11-10 03:24:00,55.8,51.9,30.18,North,0,0.2,0.4,87,0.00,,,0.00,WUHU216HW,2013-11-10 08:24:00,
2013-11-10 03:29:00,55.8,51.9,30.18,North,0,0.4,0.7,87,0.00,,,0.00,WUHU216HW,2013-11-10 08:29:00,
2013-11-10 03:34:00,55.8,51.9,30.18,North,0,0.0,0.7,87,0.00,,,0.00,WUHU216HW,2013-11-10 08:34:00,
2013-11-10 03:39:00,55.6,51.8,30.19,North,0,0.7,1.1,87,0.00,,,0.00,WUHU216HW,2013-11-10 08:39:00,
2013-11-10 03:44:00,55.6,52.1,30.19,North,0,0.7,1.1,88,0.00,,,0.00,WUHU216HW,2013-11-10 08:44:00,
2013-11-10 03:49:00,55.6,52.1,30.18,North,0,0.7,0.7,88,0.00,,,0.00,WUHU216HW,2013-11-10 08:49:00,
2013-11-10 03:54:00,55.6,52.1,30.19,North,0,0.4,0.7,88,0.00,,,0.00,WUHU216HW,2013-11-10 08:54:00,
2013-11-10 03:59:00,55.6,52.1,30.19,North,0,0.7,0.9,88,0.00,,,0.00,WUHU216HW,2013-11-10 08:59:00,
2013-11-10 04:04:00,55.6,52.1,30.19,North,0,0.2,0.9,88,0.00,,,0.00,WUHU216HW,2013-11-10 09:04:00,
2013-11-10 04:09:00,55.6,52.1,30.18,North,0,0.0,0.7,88,0.00,,,0.00,WUHU216HW,2013-11-10 09:09:00,
2013-11-10 04:14:00,55.6,52.1,30.19,NNE,23,0.0,0.4,88,0.00,,,0.00,WUHU216HW,2013-11-10 09:14:00,
2013-11-10 04:19:00,55.4,51.9,30.19,NNE,23,0.4,0.4,88,0.00,,,0.00,WUHU216HW,2013-11-10 09:19:00,
2013-11-10 04:24:00,55.6,52.1,30.18,NNE,23,0.0,0.4,88,0.00,,,0.00,WUHU216HW,2013-11-10 09:24:00,
2013-11-10 04:29:00,55.6,52.1,30.19,NNE,23,0.0,0.4,88,0.00,,,0.00,WUHU216HW,2013-11-10 09:29:00,
2013-11-10 04:34:00,55.6,52.1,30.19,North,0,0.7,0.7,88,0.00,,,0.00,WUHU216HW,2013-11-10 09:34:00,
2013-11-10 04:39:00,55.4,51.9,30.19,North,0,0.0,0.7,88,0.00,,,0.00,WUHU216HW,2013-11-10 09:39:00,
2013-11-10 04:44:00,55.4,51.9,30.18,North,0,0.0,0.7,88,0.00,,,0.00,WUHU216HW,2013-11-10 09:44:00,
2013-11-10 04:49:00,55.4,51.9,30.18,North,0,0.0,0.4,88,0.00,,,0.00,WUHU216HW,2013-11-10 09:49:00,
2013-11-10 04:54:00,55.4,51.9,30.18,North,0,0.0,0.0,88,0.00,,,0.00,WUHU216HW,2013-11-10 09:54:00,
2013-11-10 04:59:00,55.4,51.9,30.19,North,0,0.7,0.7,88,0.00,,,0.00,WUHU216HW,2013-11-10 09:59:00,
2013-11-10 05:04:00,55.3,51.8,30.19,North,0,0.0,0.7,88,0.00,,,0.00,WUHU216HW,2013-11-10 10:04:00,
2013-11-10 05:09:00,55.3,52.0,30.19,North,0,0.0,0.4,89,0.00,,,0.00,WUHU216HW,2013-11-10 10:09:00,
2013-11-10 05:14:00,55.3,52.0,30.19,North,0,0.0,0.4,89,0.00,,,0.00,WUHU216HW,2013-11-10 10:14:00,
2013-11-10 05:19:00,55.3,51.8,30.19,North,0,0.0,0.0,88,0.00,,,0.00,WUHU216HW,2013-11-10 10:19:00,
2013-11-10 05:24:00,55.3,51.8,30.20,North,0,0.0,0.0,88,0.00,,,0.00,WUHU216HW,2013-11-10 10:24:00,
2013-11-10 05:29:00,55.3,51.8,30.19,NE,45,1.1,1.1,88,0.00,,,0.00,WUHU216HW,2013-11-10 10:29:00,
2013-11-10 05:34:00,55.1,51.6,30.19,NE,45,0.0,1.1,88,0.00,,,0.00,WUHU216HW,2013-11-10 10:34:00,
2013-11-10 05:39:00,55.1,51.6,30.20,NE,45,0.0,0.9,88,0.00,,,0.00,WUHU216HW,2013-11-10 10:39:00,
2013-11-10 05:44:00,55.1,51.6,30.19,NE,45,0.0,0.4,88,0.00,,,0.00,WUHU216HW,2013-11-10 10:44:00,
2013-11-10 05:49:00,55.1,51.6,30.19,NE,45,0.0,0.4,88,0.00,,,0.00,WUHU216HW,2013-11-10 10:49:00,
2013-11-10 05:54:00,55.3,51.8,30.20,NE,45,0.4,0.4,88,0.00,,,0.00,WUHU216HW,2013-11-10 10:54:00,
2013-11-10 05:59:00,55.1,51.6,30.20,NNE,23,0.9,0.9,88,0.00,,,0.00,WUHU216HW,2013-11-10 10:59:00,
2013-11-10 06:04:00,55.1,51.8,30.20,North,0,0.0,1.1,89,0.00,,,0.00,WUHU216HW,2013-11-10 11:04:00,
2013-11-10 06:09:00,55.1,51.6,30.20,North,0,0.0,1.1,88,0.00,,,0.00,WUHU216HW,2013-11-10 11:09:00,
2013-11-10 06:14:00,55.1,51.8,30.20,North,0,0.4,1.1,89,0.00,,,0.00,WUHU216HW,2013-11-10 11:14:00,
2013-11-10 06:19:00,55.1,51.8,30.20,North,0,0.0,1.1,89,0.00,,,0.00,WUHU216HW,2013-11-10 11:19:00,
2013-11-10 06:24:00,55.1,51.8,30.20,North,0,0.0,0.4,89,0.00,,,0.00,WUHU216HW,2013-11-10 11:24:00,
2013-11-10 06:29:00,55.1,51.8,30.20,North,0,0.0,0.4,89,0.00,,,0.00,WUHU216HW,2013-11-10 11:29:00,
2013-11-10 06:34:00,55.1,51.8,30.20,North,0,0.2,0.4,89,0.00,,,0.00,WUHU216HW,2013-11-10 11:34:00,
2013-11-10 06:39:00,55.1,51.8,30.21,North,0,0.9,0.9,89,0.00,,,0.00,WUHU216HW,2013-11-10 11:39:00,
2013-11-10 06:44:00,55.1,51.8,30.21,North,0,1.1,1.6,89,0.00,,,0.00,WUHU216HW,2013-11-10 11:44:00,
2013-11-10 06:49:00,55.1,51.8,30.21,NNE,23,0.9,1.6,89,0.00,,,0.00,WUHU216HW,2013-11-10 11:49:00,
2013-11-10 06:54:00,55.1,51.8,30.21,NNE,23,0.0,1.1,89,0.00,,,0.00,WUHU216HW,2013-11-10 11:54:00,
2013-11-10 06:59:00,55.1,51.8,30.22,NNE,23,0.0,1.1,89,0.00,,,0.00,WUHU216HW,2013-11-10 11:59:00,
2013-11-10 07:04:00,55.1,51.8,30.22,NNE,23,0.4,0.4,89,0.00,,,0.00,WUHU216HW,2013-11-10 12:04:00,
2013-11-10 07:09:00,55.3,52.0,30.22,North,0,0.0,0.4,89,0.00,,,0.00,WUHU216HW,2013-11-10 12:09:00,
2013-11-10 07:14:00,55.3,52.0,30.21,North,0,0.4,0.4,89,0.00,,,0.00,WUHU216HW,2013-11-10 12:14:00,
2013-11-10 07:19:00,55.3,52.0,30.21,North,0,0.7,0.9,89,0.00,,,0.00,WUHU216HW,2013-11-10 12:19:00,
2013-11-10 07:24:00,55.4,52.2,30.22,North,0,0.7,1.3,89,0.00,,,0.00,WUHU216HW,2013-11-10 12:24:00,
2013-11-10 07:29:00,55.4,52.2,30.22,North,0,0.9,1.3,89,0.00,,,0.00,WUHU216HW,2013-11-10 12:29:00,
2013-11-10 07:34:00,55.6,52.4,30.22,North,0,0.0,0.9,89,0.00,,,0.00,WUHU216HW,2013-11-10 12:34:00,
2013-11-10 07:39:00,55.6,52.4,30.22,North,0,0.0,0.9,89,0.00,,,0.00,WUHU216HW,2013-11-10 12:39:00,
2013-11-10 07:44:00,55.8,52.6,30.23,North,0,0.9,0.9,89,0.00,,,0.00,WUHU216HW,2013-11-10 12:44:00,
2013-11-10 07:49:00,55.8,52.6,30.23,North,0,0.4,1.1,89,0.00,,,0.00,WUHU216HW,2013-11-10 12:49:00,
2013-11-10 07:54:00,55.8,52.6,30.24,North,0,0.7,1.1,89,0.00,,,0.00,WUHU216HW,2013-11-10 12:54:00,
2013-11-10 07:59:00,56.0,52.7,30.24,North,0,0.0,0.9,89,0.00,,,0.00,WUHU216HW,2013-11-10 12:59:00,
2013-11-10 08:04:00,56.2,52.9,30.24,North,0,0.9,0.9,89,0.00,,,0.00,WUHU216HW,2013-11-10 13:04:00,
2013-11-10 08:09:00,56.3,53.1,30.24,North,0,0.4,0.9,89,0.00,,,0.00,WUHU216HW,2013-11-10 13:09:00,
2013-11-10 08:14:00,56.5,53.0,30.24,North,0,0.0,0.7,88,0.00,,,0.00,WUHU216HW,2013-11-10 13:14:00,
2013-11-10 08:19:00,56.7,53.2,30.24,North,0,0.7,0.9,88,0.00,,,0.00,WUHU216HW,2013-11-10 13:19:00,
2013-11-10 08:24:00,56.7,53.2,30.24,North,0,0.4,0.9,88,0.00,,,0.00,WUHU216HW,2013-11-10 13:24:00,
2013-11-10 08:29:00,56.9,53.4,30.24,North,0,0.4,0.9,88,0.00,,,0.00,WUHU216HW,2013-11-10 13:29:00,
2013-11-10 08:34:00,57.2,53.7,30.25,North,0,0.0,0.9,88,0.00,,,0.00,WUHU216HW,2013-11-10 13:34:00,
2013-11-10 08:39:00,57.2,53.7,30.25,North,0,0.4,0.9,88,0.00,,,0.00,WUHU216HW,2013-11-10 13:39:00,
2013-11-10 08:44:00,57.6,54.1,30.25,North,0,0.9,0.9,88,0.00,,,0.00,WUHU216HW,2013-11-10 13:44:00,
2013-11-10 08:49:00,57.8,53.9,30.25,NNE,23,0.9,0.9,87,0.00,,,0.00,WUHU216HW,2013-11-10 13:49:00,
2013-11-10 08:54:00,58.0,54.1,30.24,NE,45,1.8,1.8,87,0.00,,,0.00,WUHU216HW,2013-11-10 13:54:00,
2013-11-10 08:59:00,58.3,54.5,30.25,NNE,23,0.4,1.8,87,0.00,,,0.00,WUHU216HW,2013-11-10 13:59:00,
2013-11-10 09:04:00,58.5,54.6,30.24,NE,45,0.4,1.1,87,0.00,,,0.00,WUHU216HW,2013-11-10 14:04:00,
2013-11-10 09:09:00,58.7,54.8,30.24,NNE,23,0.4,1.1,87,0.00,,,0.00,WUHU216HW,2013-11-10 14:09:00,
2013-11-10 09:14:00,58.9,55.0,30.24,NNE,23,1.1,1.1,87,0.00,,,0.00,WUHU216HW,2013-11-10 14:14:00,
2013-11-10 09:19:00,59.0,55.2,30.25,NE,45,0.0,1.1,87,0.00,,,0.00,WUHU216HW,2013-11-10 14:19:00,
2013-11-10 09:24:00,59.2,55.4,30.24,NNE,23,0.9,0.9,87,0.00,,,0.00,WUHU216HW,2013-11-10 14:24:00,
2013-11-10 09:29:00,59.4,55.5,30.25,NNE,23,0.0,0.9,87,0.00,,,0.00,WUHU216HW,2013-11-10 14:29:00,
2013-11-10 09:34:00,59.6,55.7,30.24,NE,45,0.0,0.7,87,0.00,,,0.00,WUHU216HW,2013-11-10 14:34:00,
2013-11-10 09:39:00,59.9,56.1,30.24,NE,45,0.0,1.3,87,0.00,,,0.00,WUHU216HW,2013-11-10 14:39:00,
2013-11-10 09:44:00,60.1,56.0,30.24,NNE,23,0.4,1.3,86,0.00,,,0.00,WUHU216HW,2013-11-10 14:44:00,
2013-11-10 09:49:00,60.7,56.5,30.24,North,0,0.2,1.1,86,0.00,,,0.00,WUHU216HW,2013-11-10 14:49:00,
2013-11-10 09:54:00,61.2,57.0,30.25,North,0,1.1,1.1,86,0.00,,,0.00,WUHU216HW,2013-11-10 14:54:00,
2013-11-10 09:59:00,61.4,56.9,30.25,North,0,0.0,1.1,85,0.00,,,0.00,WUHU216HW,2013-11-10 14:59:00,
2013-11-10 10:04:00,61.6,57.1,30.25,North,0,1.1,1.1,85,0.00,,,0.00,WUHU216HW,2013-11-10 15:04:00,
2013-11-10 10:09:00,62.1,57.5,30.25,North,0,0.0,1.1,85,0.00,,,0.00,WUHU216HW,2013-11-10 15:09:00,
2013-11-10 10:14:00,62.5,57.5,30.25,North,0,0.0,0.2,84,0.00,,,0.00,WUHU216HW,2013-11-10 15:14:00,
2013-11-10 10:19:00,62.8,57.9,30.26,NE,45,1.3,1.3,84,0.00,,,0.00,WUHU216HW,2013-11-10 15:19:00,
2013-11-10 10:24:00,63.0,57.7,30.25,NE,45,1.1,1.3,83,0.00,,,0.00,WUHU216HW,2013-11-10 15:24:00,
2013-11-10 10:29:00,63.2,57.9,30.25,NNE,23,0.4,1.1,83,0.00,,,0.00,WUHU216HW,2013-11-10 15:29:00,
2013-11-10 10:34:00,63.5,58.2,30.24,NE,45,0.4,0.7,83,0.00,,,0.00,WUHU216HW,2013-11-10 15:34:00,
2013-11-10 10:39:00,63.7,58.4,30.25,NNE,23,0.7,1.1,83,0.00,,,0.00,WUHU216HW,2013-11-10 15:39:00,
2013-11-10 10:44:00,63.9,58.3,30.25,North,0,0.4,1.1,82,0.00,,,0.00,WUHU216HW,2013-11-10 15:44:00,
2013-11-10 10:49:00,64.3,58.7,30.24,North,0,0.0,0.7,82,0.00,,,0.00,WUHU216HW,2013-11-10 15:49:00,
2013-11-10 10:54:00,64.4,58.9,30.24,North,0,0.0,0.9,82,0.00,,,0.00,WUHU216HW,2013-11-10 15:54:00,
2013-11-10 10:59:00,64.4,58.9,30.24,North,0,0.0,0.9,82,0.00,,,0.00,WUHU216HW,2013-11-10 15:59:00,
2013-11-10 11:04:00,64.6,59.1,30.24,North,0,0.0,0.4,82,0.00,,,0.00,WUHU216HW,2013-11-10 16:04:00,
2013-11-10 11:10:00,64.8,59.5,30.24,North,0,0.0,0.0,83,0.00,,,0.00,WUHU216HW,2013-11-10 16:10:00,
2013-11-10 11:15:00,65.2,59.5,30.24,North,0,0.0,0.4,82,0.00,,,0.00,WUHU216HW,2013-11-10 16:15:00,
2013-11-10 11:20:00,65.9,60.6,30.24,North,0,0.0,0.4,83,0.00,,,0.00,WUHU216HW,2013-11-10 16:20:00,
2013-11-10 11:25:00,66.4,60.8,30.23,ENE,68,0.4,0.4,82,0.00,,,0.00,WUHU216HW,2013-11-10 16:25:00,
2013-11-10 11:30:00,66.6,60.7,30.23,NNE,23,1.1,1.1,81,0.00,,,0.00,WUHU216HW,2013-11-10 16:30:00,
2013-11-10 11:35:00,66.6,60.3,30.23,NE,45,1.8,1.8,80,0.00,,,0.00,WUHU216HW,2013-11-10 16:35:00,
2013-11-10 11:40:00,67.1,60.8,30.23,NNE,23,0.0,1.8,80,0.00,,,0.00,WUHU216HW,2013-11-10 16:40:00,
2013-11-10 11:45:00,68.2,61.9,30.23,North,0,1.1,1.8,80,0.00,,,0.00,WUHU216HW,2013-11-10 16:45:00,
2013-11-10 11:50:00,70.0,63.2,30.22,ENE,68,0.4,2.5,79,0.00,,,0.00,WUHU216HW,2013-11-10 16:50:00,
2013-11-10 11:55:00,71.1,62.7,30.22,NNW,338,1.1,2.5,75,0.00,,,0.00,WUHU216HW,2013-11-10 16:55:00,
2013-11-10 12:00:00,71.5,62.7,30.22,SW,225,1.1,2.5,74,0.00,,,0.00,WUHU216HW,2013-11-10 17:00:00,
2013-11-10 12:05:00,71.3,62.6,30.21,SSW,203,0.4,2.5,74,0.00,,,0.00,WUHU216HW,2013-11-10 17:05:00,
2013-11-10 12:10:00,71.3,62.2,30.21,North,0,0.0,2.5,73,0.00,,,0.00,WUHU216HW,2013-11-10 17:10:00,
2013-11-10 12:15:00,71.3,61.7,30.21,North,0,0.2,1.6,72,0.00,,,0.00,WUHU216HW,2013-11-10 17:15:00,
2013-11-10 12:20:00,71.3,61.7,30.21,WSW,248,2.5,2.5,72,0.00,,,0.00,WUHU216HW,2013-11-10 17:20:00,
2013-11-10 12:25:00,71.3,61.7,30.20,SW,225,1.6,2.9,72,0.00,,,0.00,WUHU216HW,2013-11-10 17:25:00,
2013-11-10 12:30:00,71.5,61.2,30.20,NE,45,2.7,2.9,70,0.00,,,0.00,WUHU216HW,2013-11-10 17:30:00,
2013-11-10 12:35:00,70.9,60.2,30.20,NNE,23,0.9,2.7,69,0.00,,,0.00,WUHU216HW,2013-11-10 17:35:00,
2013-11-10 12:40:00,70.9,60.7,30.19,NE,45,2.5,2.5,70,0.00,,,0.00,WUHU216HW,2013-11-10 17:40:00,
2013-11-10 12:45:00,71.3,61.0,30.19,ENE,68,0.7,2.5,70,0.00,,,0.00,WUHU216HW,2013-11-10 17:45:00,
2013-11-10 12:50:00,71.6,60.9,30.19,NNE,23,1.6,1.8,69,0.00,,,0.00,WUHU216HW,2013-11-10 17:50:00,
2013-11-10 12:55:00,71.8,61.6,30.18,WSW,248,0.2,2.5,70,0.00,,,0.00,WUHU216HW,2013-11-10 17:55:00,
2013-11-10 13:00:00,72.2,61.5,30.18,North,0,0.7,2.5,69,0.00,,,0.00,WUHU216HW,2013-11-10 18:00:00,
2013-11-10 13:05:00,72.4,61.7,30.18,SW,225,2.5,2.5,69,0.00,,,0.00,WUHU216HW,2013-11-10 18:05:00,
2013-11-10 13:10:00,72.4,61.2,30.18,North,0,0.9,2.5,68,0.00,,,0.00,WUHU216HW,2013-11-10 18:10:00,
2013-11-10 13:15:00,72.5,61.4,30.17,WSW,248,1.1,1.6,68,0.00,,,0.00,WUHU216HW,2013-11-10 18:15:00,
2013-11-10 13:20:00,72.7,61.1,30.17,ENE,68,0.4,2.7,67,0.00,,,0.00,WUHU216HW,2013-11-10 18:20:00,
2013-11-10 13:25:00,72.5,60.5,30.17,NNW,338,0.0,2.7,66,0.00,,,0.00,WUHU216HW,2013-11-10 18:25:00,
2013-11-10 13:30:00,72.5,61.4,30.17,WSW,248,0.0,0.7,68,0.00,,,0.00,WUHU216HW,2013-11-10 18:30:00,
2013-11-10 13:35:00,72.7,61.1,30.17,ESE,113,0.2,2.0,67,0.00,,,0.00,WUHU216HW,2013-11-10 18:35:00,
2013-11-10 13:40:00,72.9,61.3,30.17,ENE,68,0.0,2.0,67,0.00,,,0.00,WUHU216HW,2013-11-10 18:40:00,
2013-11-10 13:45:00,73.1,61.9,30.16,NNE,23,0.4,2.0,68,0.00,,,0.00,WUHU216HW,2013-11-10 18:45:00,
2013-11-10 13:50:00,73.6,62.0,30.16,NNW,338,0.9,4.5,67,0.00,,,0.00,WUHU216HW,2013-11-10 18:50:00,
2013-11-10 13:55:00,74.0,61.9,30.16,NNW,338,1.1,4.7,66,0.00,,,0.00,WUHU216HW,2013-11-10 18:55:00,
2013-11-10 14:00:00,74.2,61.7,30.16,NNW,338,0.4,4.7,65,0.00,,,0.00,WUHU216HW,2013-11-10 19:00:00,
2013-11-10 14:05:00,74.2,61.2,30.16,NE,45,0.0,2.2,64,0.00,,,0.00,WUHU216HW,2013-11-10 19:05:00,
2013-11-10 14:10:00,74.0,61.0,30.16,NE,45,1.1,2.0,64,0.00,,,0.00,WUHU216HW,2013-11-10 19:10:00,
2013-11-10 14:15:00,73.8,60.9,30.16,NE,45,0.4,1.1,64,0.00,,,0.00,WUHU216HW,2013-11-10 19:15:00,
2013-11-10 14:20:00,73.8,60.9,30.16,NNW,338,1.1,1.1,64,0.00,,,0.00,WUHU216HW,2013-11-10 19:20:00,
2013-11-10 14:25:00,73.8,60.9,30.16,NE,45,1.6,2.2,64,0.00,,,0.00,WUHU216HW,2013-11-10 19:25:00,
2013-11-10 14:30:00,73.8,60.4,30.16,NE,45,1.3,2.2,63,0.00,,,0.00,WUHU216HW,2013-11-10 19:30:00,
2013-11-10 14:35:00,73.6,60.2,30.16,NNE,23,0.4,1.3,63,0.00,,,0.00,WUHU216HW,2013-11-10 19:35:00,
2013-11-10 14:40:00,73.8,60.9,30.15,NE,45,1.6,1.8,64,0.00,,,0.00,WUHU216HW,2013-11-10 19:40:00,
2013-11-10 14:45:00,74.0,60.1,30.15,SSE,158,1.8,2.0,62,0.00,,,0.00,WUHU216HW,2013-11-10 19:45:00,
2013-11-10 14:50:00,73.8,59.5,30.15,SSW,203,1.8,2.0,61,0.00,,,0.00,WUHU216HW,2013-11-10 19:50:00,
2013-11-10 14:55:00,73.8,59.5,30.15,South,180,1.1,2.2,61,0.00,,,0.00,WUHU216HW,2013-11-10 19:55:00,
2013-11-10 15:00:00,73.6,59.3,30.14,ENE,68,0.4,2.2,61,0.00,,,0.00,WUHU216HW,2013-11-10 20:00:00,
2013-11-10 15:05:00,73.6,59.8,30.14,SW,225,0.0,1.8,62,0.00,,,0.00,WUHU216HW,2013-11-10 20:05:00,
2013-11-10 15:10:00,73.6,59.8,30.14,West,270,1.1,1.8,62,0.00,,,0.00,WUHU216HW,2013-11-10 20:10:00,
2013-11-10 15:15:00,73.4,60.0,30.14,SSW,203,1.3,1.3,63,0.00,,,0.00,WUHU216HW,2013-11-10 20:15:00,
2013-11-10 15:20:00,73.4,59.6,30.14,WSW,248,2.0,2.0,62,0.00,,,0.00,WUHU216HW,2013-11-10 20:20:00,
2013-11-10 15:25:00,73.4,59.6,30.14,WNW,293,0.0,2.0,62,0.00,,,0.00,WUHU216HW,2013-11-10 20:25:00,
2013-11-10 15:30:00,73.3,59.0,30.14,South,180,0.2,2.2,61,0.00,,,0.00,WUHU216HW,2013-11-10 20:30:00,
2013-11-10 15:35:00,73.3,59.9,30.14,South,180,0.0,2.2,63,0.00,,,0.00,WUHU216HW,2013-11-10 20:35:00,
2013-11-10 15:40:00,73.1,59.7,30.14,North,0,0.0,1.1,63,0.00,,,0.00,WUHU216HW,2013-11-10 20:40:00,
2013-11-10 15:45:00,73.1,59.7,30.14,North,0,0.7,1.1,63,0.00,,,0.00,WUHU216HW,2013-11-10 20:45:00,
2013-11-10 15:50:00,72.7,59.8,30.14,North,0,1.3,1.3,64,0.00,,,0.00,WUHU216HW,2013-11-10 20:50:00,
2013-11-10 15:55:00,72.4,59.5,30.15,North,0,0.7,1.3,64,0.00,,,0.00,WUHU216HW,2013-11-10 20:55:00,
2013-11-10 16:00:00,72.4,60.0,30.15,North,0,1.1,1.1,65,0.00,,,0.00,WUHU216HW,2013-11-10 21:00:00,
2013-11-10 16:05:00,72.2,59.8,30.15,North,0,0.4,1.1,65,0.00,,,0.00,WUHU216HW,2013-11-10 21:05:00,
2013-11-10 16:10:00,72.0,59.1,30.15,NNE,23,0.0,1.1,64,0.00,,,0.00,WUHU216HW,2013-11-10 21:10:00,
2013-11-10 16:15:00,71.8,59.4,30.15,NNE,23,0.0,1.1,65,0.00,,,0.00,WUHU216HW,2013-11-10 21:15:00,
2013-11-10 16:20:00,71.5,59.0,30.15,NNE,23,0.4,0.7,65,0.00,,,0.00,WUHU216HW,2013-11-10 21:20:00,
2013-11-10 16:25:00,71.1,58.7,30.15,NNE,23,0.0,0.7,65,0.00,,,0.00,WUHU216HW,2013-11-10 21:25:00,
2013-11-10 16:30:00,71.3,58.9,30.15,SW,225,1.1,1.1,65,0.00,,,0.00,WUHU216HW,2013-11-10 21:30:00,
2013-11-10 16:35:00,71.3,58.9,30.15,WSW,248,0.7,1.1,65,0.00,,,0.00,WUHU216HW,2013-11-10 21:35:00,
2013-11-10 16:40:00,71.3,58.9,30.16,WSW,248,0.0,1.1,65,0.00,,,0.00,WUHU216HW,2013-11-10 21:40:00,
2013-11-10 16:45:00,70.9,59.0,30.15,WSW,248,0.0,0.7,66,0.00,,,0.00,WUHU216HW,2013-11-10 21:45:00,
2013-11-10 16:50:00,70.7,58.8,30.15,WSW,248,0.4,0.4,66,0.00,,,0.00,WUHU216HW,2013-11-10 21:50:00,
2013-11-10 16:55:00,70.4,58.4,30.15,WSW,248,0.0,0.4,66,0.00,,,0.00,WUHU216HW,2013-11-10 21:55:00,
2013-11-10 17:00:00,70.2,58.7,30.16,WSW,248,0.0,0.4,67,0.00,,,0.00,WUHU216HW,2013-11-10 22:00:00,
2013-11-10 17:05:00,69.7,58.1,30.16,WSW,248,0.0,0.0,67,0.00,,,0.00,WUHU216HW,2013-11-10 22:05:00,
2013-11-10 17:10:00,69.1,58.1,30.16,West,270,0.4,0.4,68,0.00,,,0.00,WUHU216HW,2013-11-10 22:10:00,
2013-11-10 17:15:00,68.8,58.1,30.16,NNW,338,0.4,0.9,69,0.00,,,0.00,WUHU216HW,2013-11-10 22:15:00,
2013-11-10 17:20:00,68.4,58.3,30.16,NNW,338,0.0,0.9,70,0.00,,,0.00,WUHU216HW,2013-11-10 22:20:00,
2013-11-10 17:25:00,68.0,58.0,30.16,NNW,338,0.0,0.4,70,0.00,,,0.00,WUHU216HW,2013-11-10 22:25:00,
2013-11-10 17:30:00,67.9,58.1,30.16,NNW,338,0.0,0.0,71,0.00,,,0.00,WUHU216HW,2013-11-10 22:30:00,
2013-11-10 17:35:00,67.5,58.1,30.16,NNW,338,0.0,0.0,72,0.00,,,0.00,WUHU216HW,2013-11-10 22:35:00,
2013-11-10 17:40:00,67.1,57.8,30.16,NNW,338,0.0,0.0,72,0.00,,,0.00,WUHU216HW,2013-11-10 22:40:00,
2013-11-10 17:45:00,66.8,57.9,30.16,NNW,338,0.0,0.0,73,0.00,,,0.00,WUHU216HW,2013-11-10 22:45:00,
2013-11-10 17:50:00,66.6,57.7,30.16,NNW,338,0.0,0.0,73,0.00,,,0.00,WUHU216HW,2013-11-10 22:50:00,
2013-11-10 17:55:00,66.2,57.3,30.16,NNW,338,0.0,0.0,73,0.00,,,0.00,WUHU216HW,2013-11-10 22:55:00,
2013-11-10 18:00:00,65.9,57.3,30.16,NNW,338,0.0,0.0,74,0.00,,,0.00,WUHU216HW,2013-11-10 23:00:00,
2013-11-10 18:05:00,65.3,56.8,30.16,NNW,338,0.0,0.0,74,0.00,,,0.00,WUHU216HW,2013-11-10 23:05:00,
2013-11-10 18:10:00,65.2,56.7,30.16,NNW,338,0.0,0.0,74,0.00,,,0.00,WUHU216HW,2013-11-10 23:10:00,
2013-11-10 18:15:00,64.8,56.7,30.16,NNW,338,0.0,0.0,75,0.00,,,0.00,WUHU216HW,2013-11-10 23:15:00,
2013-11-10 18:20:00,64.4,56.3,30.16,NNW,338,0.0,0.0,75,0.00,,,0.00,WUHU216HW,2013-11-10 23:20:00,
2013-11-10 18:25:00,63.9,56.2,30.16,NNW,338,0.4,0.4,76,0.00,,,0.00,WUHU216HW,2013-11-10 23:25:00,
2013-11-10 18:30:00,63.7,56.3,30.17,NNW,338,0.0,0.4,77,0.00,,,0.00,WUHU216HW,2013-11-10 23:30:00,
2013-11-10 18:35:00,63.4,55.6,30.16,NNW,338,0.0,0.0,76,0.00,,,0.00,WUHU216HW,2013-11-10 23:35:00,
2013-11-10 18:40:00,63.2,55.8,30.16,NNW,338,0.0,0.0,77,0.00,,,0.00,WUHU216HW,2013-11-10 23:40:00,
2013-11-10 18:45:00,63.0,55.6,30.17,NNW,338,0.0,0.0,77,0.00,,,0.00,WUHU216HW,2013-11-10 23:45:00,
2013-11-10 18:50:00,62.6,55.3,30.17,NNW,338,0.0,0.0,77,0.00,,,0.00,WUHU216HW,2013-11-10 23:50:00,
2013-11-10 18:55:00,62.5,55.4,30.17,NNW,338,0.0,0.0,78,0.00,,,0.00,WUHU216HW,2013-11-10 23:55:00,
2013-11-10 19:00:00,62.3,55.3,30.17,NNW,338,0.0,0.0,78,0.00,,,0.00,WUHU216HW,2013-11-11 00:00:00,
2013-11-10 19:05:00,61.9,55.4,30.17,NNW,338,0.0,0.0,79,0.00,,,0.00,WUHU216HW,2013-11-11 00:05:00,
2013-11-10 19:10:00,61.6,55.0,30.17,NNW,338,0.0,0.0,79,0.00,,,0.00,WUHU216HW,2013-11-11 00:10:00,
2013-11-10 19:15:00,61.4,54.8,30.16,NNW,338,0.0,0.0,79,0.00,,,0.00,WUHU216HW,2013-11-11 00:15:00,
2013-11-10 19:20:00,61.0,54.9,30.16,NNW,338,0.0,0.0,80,0.00,,,0.00,WUHU216HW,2013-11-11 00:20:00,
2013-11-10 19:25:00,60.8,54.7,30.17,NNW,338,0.0,0.0,80,0.00,,,0.00,WUHU216HW,2013-11-11 00:25:00,
2013-11-10 19:30:00,60.7,54.5,30.17,NNW,338,0.0,0.0,80,0.00,,,0.00,WUHU216HW,2013-11-11 00:30:00,
2013-11-10 19:35:00,60.5,54.7,30.17,NNW,338,0.0,0.0,81,0.00,,,0.00,WUHU216HW,2013-11-11 00:35:00,
2013-11-10 19:40:00,60.3,54.6,30.17,NNW,338,0.0,0.0,81,0.00,,,0.00,WUHU216HW,2013-11-11 00:40:00,
2013-11-10 19:45:00,60.1,54.4,30.17,NNW,338,0.0,0.0,81,0.00,,,0.00,WUHU216HW,2013-11-11 00:45:00,
2013-11-10 19:50:00,59.9,54.2,30.17,NNW,338,0.0,0.0,81,0.00,,,0.00,WUHU216HW,2013-11-11 00:50:00,
2013-11-10 19:55:00,59.6,54.1,30.17,NNW,338,0.0,0.0,82,0.00,,,0.00,WUHU216HW,2013-11-11 00:55:00,
2013-11-10 20:00:00,59.4,53.9,30.17,NNW,338,0.0,0.0,82,0.00,,,0.00,WUHU216HW,2013-11-11 01:00:00,
2013-11-10 20:05:00,59.2,53.7,30.17,NNW,338,0.0,0.0,82,0.00,,,0.00,WUHU216HW,2013-11-11 01:05:00,
2013-11-10 20:10:00,59.0,53.9,30.17,NNW,338,0.0,0.0,83,0.00,,,0.00,WUHU216HW,2013-11-11 01:10:00,
2013-11-10 20:15:00,58.9,53.7,30.17,NNW,338,0.0,0.0,83,0.00,,,0.00,WUHU216HW,2013-11-11 01:15:00,
2013-11-10 20:20:00,58.7,53.6,30.17,NNW,338,0.0,0.0,83,0.00,,,0.00,WUHU216HW,2013-11-11 01:20:00,
2013-11-10 20:25:00,58.5,53.4,30.17,NNW,338,0.0,0.0,83,0.00,,,0.00,WUHU216HW,2013-11-11 01:25:00,
2013-11-10 20:30:00,58.3,53.2,30.17,NNW,338,0.0,0.0,83,0.00,,,0.00,WUHU216HW,2013-11-11 01:30:00,
2013-11-10 20:35:00,58.1,53.0,30.17,NNW,338,0.0,0.0,83,0.00,,,0.00,WUHU216HW,2013-11-11 01:35:00,
2013-11-10 20:40:00,58.0,53.1,30.17,NNW,338,0.0,0.0,84,0.00,,,0.00,WUHU216HW,2013-11-11 01:40:00,
2013-11-10 20:45:00,57.8,52.9,30.17,NNW,338,0.0,0.0,84,0.00,,,0.00,WUHU216HW,2013-11-11 01:45:00,
2013-11-10 20:50:00,57.6,52.7,30.17,NNW,338,0.0,0.7,84,0.00,,,0.00,WUHU216HW,2013-11-11 01:50:00,
2013-11-10 20:55:00,57.4,52.9,30.17,NNW,338,0.0,0.7,85,0.00,,,0.00,WUHU216HW,2013-11-11 01:55:00,
2013-11-10 21:00:00,57.2,52.7,30.17,NNW,338,0.0,0.0,85,0.00,,,0.00,WUHU216HW,2013-11-11 02:00:00,
2013-11-10 21:05:00,57.2,52.7,30.18,NNW,338,0.0,0.0,85,0.00,,,0.00,WUHU216HW,2013-11-11 02:05:00,
2013-11-10 21:10:00,57.1,52.2,30.18,NNW,338,0.0,0.0,84,0.00,,,0.00,WUHU216HW,2013-11-11 02:10:00,
2013-11-10 21:15:00,56.9,52.0,30.18,NNW,338,0.0,0.0,84,0.00,,,0.00,WUHU216HW,2013-11-11 02:15:00,
2013-11-10 21:20:00,56.9,52.0,30.18,NNW,338,0.0,0.0,84,0.00,,,0.00,WUHU216HW,2013-11-11 02:20:00,
2013-11-10 21:25:00,56.7,51.8,30.18,NNW,338,0.0,0.0,84,0.00,,,0.00,WUHU216HW,2013-11-11 02:25:00,
2013-11-10 21:30:00,56.5,51.7,30.18,NNW,338,0.0,0.0,84,0.00,,,0.00,WUHU216HW,2013-11-11 02:30:00,
2013-11-10 21:35:00,56.3,51.8,30.18,NNW,338,0.0,0.0,85,0.00,,,0.00,WUHU216HW,2013-11-11 02:35:00,
2013-11-10 21:40:00,56.2,51.7,30.18,NNW,338,0.0,0.0,85,0.00,,,0.00,WUHU216HW,2013-11-11 02:40:00,
2013-11-10 21:45:00,56.0,51.5,30.18,NNW,338,0.0,0.0,85,0.00,,,0.00,WUHU216HW,2013-11-11 02:45:00,
2013-11-10 21:50:00,55.8,51.3,30.19,NNW,338,0.0,0.0,85,0.00,,,0.00,WUHU216HW,2013-11-11 02:50:00,
2013-11-10 21:55:00,55.8,51.3,30.19,NNW,338,0.0,0.0,85,0.00,,,0.00,WUHU216HW,2013-11-11 02:55:00,
2013-11-10 22:00:00,55.6,51.1,30.19,NNW,338,0.0,0.0,85,0.00,,,0.00,WUHU216HW,2013-11-11 03:00:00,
2013-11-10 22:05:00,55.4,51.3,30.18,NNW,338,0.0,0.0,86,0.00,,,0.00,WUHU216HW,2013-11-11 03:05:00,
2013-11-10 22:10:00,55.4,51.3,30.18,NNW,338,0.0,0.0,86,0.00,,,0.00,WUHU216HW,2013-11-11 03:10:00,
2013-11-10 22:15:00,55.3,51.1,30.18,NNW,338,0.0,0.0,86,0.00,,,0.00,WUHU216HW,2013-11-11 03:15:00,
2013-11-10 22:20:00,55.1,51.0,30.18,NNW,338,0.0,0.0,86,0.00,,,0.00,WUHU216HW,2013-11-11 03:20:00,
2013-11-10 22:25:00,54.9,50.8,30.18,NNW,338,0.0,0.0,86,0.00,,,0.00,WUHU216HW,2013-11-11 03:25:00,
2013-11-10 22:30:00,54.7,50.6,30.18,NNW,338,0.0,0.0,86,0.00,,,0.00,WUHU216HW,2013-11-11 03:30:00,
2013-11-10 22:35:00,54.5,50.4,30.19,NNW,338,0.0,0.0,86,0.00,,,0.00,WUHU216HW,2013-11-11 03:35:00,
2013-11-10 22:40:00,54.4,50.2,30.19,NNW,338,0.0,0.0,86,0.00,,,0.00,WUHU216HW,2013-11-11 03:40:00,
2013-11-10 22:45:00,54.4,50.6,30.19,NNW,338,0.0,0.0,87,0.00,,,0.00,WUHU216HW,2013-11-11 03:45:00,
2013-11-10 22:50:00,54.4,50.2,30.18,NNW,338,0.0,0.0,86,0.00,,,0.00,WUHU216HW,2013-11-11 03:50:00,
2013-11-10 22:55:00,54.2,50.0,30.18,NNW,338,0.0,0.0,86,0.00,,,0.00,WUHU216HW,2013-11-11 03:55:00,
2013-11-10 23:00:00,54.2,50.0,30.18,NNW,338,0.0,0.0,86,0.00,,,0.00,WUHU216HW,2013-11-11 04:00:00,
2013-11-10 23:05:00,54.0,49.9,30.19,NNW,338,0.0,0.0,86,0.00,,,0.00,WUHU216HW,2013-11-11 04:05:00,
2013-11-10 23:10:00,53.8,49.7,30.18,NNW,338,0.0,0.0,86,0.00,,,0.00,WUHU216HW,2013-11-11 04:10:00,
2013-11-10 23:15:00,53.6,49.5,30.19,NNW,338,0.0,0.0,86,0.00,,,0.00,WUHU216HW,2013-11-11 04:15:00,
2013-11-10 23:20:00,53.5,49.3,30.19,NNW,338,0.0,0.0,86,0.00,,,0.00,WUHU216HW,2013-11-11 04:20:00,
2013-11-10 23:25:00,53.5,49.7,30.19,NNW,338,0.0,0.0,87,0.00,,,0.00,WUHU216HW,2013-11-11 04:25:00,
2013-11-10 23:30:00,53.3,49.5,30.18,NNW,338,0.0,0.0,87,0.00,,,0.00,WUHU216HW,2013-11-11 04:30:00,
2013-11-10 23:35:00,52.9,49.2,30.19,NNW,338,0.0,0.0,87,0.00,,,0.00,WUHU216HW,2013-11-11 04:35:00,
2013-11-10 23:40:00,52.9,49.2,30.18,NNW,338,0.0,0.0,87,0.00,,,0.00,WUHU216HW,2013-11-11 04:40:00,
2013-11-10 23:45:00,52.6,48.8,30.19,NNW,338,0.0,0.0,87,0.00,,,0.00,WUHU216HW,2013-11-11 04:45:00,
2013-11-10 23:50:00,52.4,48.9,30.18,NNW,338,0.0,0.0,88,0.00,,,0.00,WUHU216HW,2013-11-11 04:50:00,
2013-11-10 23:55:00,52.4,48.9,30.18,NNW,338,0.0,0.0,88,0.00,,,0.00,WUHU216HW,2013-11-11 04:55:00,